Regional Weather Roundup
Issued by NWS

Home | Current Version | Previous Version | Graphics & Text | Print | Product List | Glossary On
Versions: 1 2 3 4 5 6 7 8 9 10 11 12 13 14 15 16 17 18 19 20 21 22 23 24 25 26 27 28 29 30 31 32 33 34 35 36 37 38 39 40 41 42 43 44 45 46 47 48 49 50
879
ASUS43 KIND 172359
RWRIN

WEATHER ROUNDUP FOR INDIANA
NATIONAL WEATHER SERVICE INDIANAPOLIS IN
700 PM EST SUN DEC 17 2017

NOTE: "FAIR" INDICATES FEW OR NO CLOUDS BELOW 12,000 FEET WITH NO
SIGNIFICANT WEATHER AND/OR OBSTRUCTIONS TO VISIBILITY.

* - STATION DOES NOT REPORT WEATHER SUCH AS PRECIPITATION OR FOG.

+ - STATION NOT QUALITY CONTROLLED BY THE NATIONAL WEATHER SERVICE.
    USE DATA WITH CAUTION...ESPECIALLY DEWPOINT AND RELATIVE
    HUMIDITY OBSERVATIONS.

INZ001>003-010>013-019-020-180100-
NORTHWEST INDIANA

CITY           SKY/WX    TMP DP  RH WIND       PRES   REMARKS
GARY /AIRPORT/ CLOUDY    45  34  65 VRB5      29.99F
KNOX *+        CLOUDY    39  34  81 S7        30.02R WCI  34
MONTICELLO +   CLOUDY    42  35  76 S5        30.03S
6HR MIN TEMP:  40; 6HR MAX TEMP:  42;


$$

LMZ046-743>745-180100-
SOUTHERN LAKE MICHIGAN

STATION/POSITION TIME  TEMP    WIND        PRES    WAVE
                       AIR SEA DIR/SP/G            HT
                 (UTC) (F)     (DEG/KT/KT) (MB)    (FT)
BURNS HARBOR     2340   42     180/ 10/ 13 1016.3R
MICHIGAN CITY    2330   42     170/ 13/ 15   N/A

$$

INZ004-005-014>016-021>024-180100-
NORTH CENTRAL INDIANA

CITY           SKY/WX    TMP DP  RH WIND       PRES   REMARKS
GOSHEN         CLOUDY    38  33  82 S7        30.02R WCI  33
6HR MIN TEMP:  35; 6HR MAX TEMP:  39;

PERU/GRISSOM   CLOUDY    40  40 100 S9        30.04R WCI  34
6HR MIN TEMP:  39; 6HR MAX TEMP:  41; 6HR PCP:  0.03;

SOUTH BEND     CLOUDY    36  33  89 S5        30.02R WCI  32
6HR MIN TEMP:  34; 6HR MAX TEMP:  39;

WARSAW +       CLOUDY    37  34  87 SW3       30.03S

$$

INZ006>009-017-018-025>027-180100-
NORTHEAST INDIANA

CITY           SKY/WX    TMP DP  RH WIND       PRES   REMARKS
FORT WAYNE     CLOUDY    37  36  96 S8        30.05R WCI  31
6HR MIN TEMP:  33; 6HR MAX TEMP:  41; 6HR PCP:  0.01;

KENDALLVILLE + CLOUDY    35  32  90 S5        30.03R WCI  31

$$

INZ028-029-035-036-043>045-051>053-180100-
WEST CENTRAL INDIANA

CITY           SKY/WX    TMP DP  RH WIND       PRES   REMARKS
LAFAYETTE      CLOUDY    42  38  85 S5        30.05R
6HR MIN TEMP:  40; 6HR MAX TEMP:  44; 6HR PCP: TRACE;

TERRE HAUTE    CLOUDY    44  38  79 S8        30.07R
6HR MIN TEMP:  41; 6HR MAX TEMP:  46; 6HR PCP:  0.01;


$$

INZ030>032-037>040-046>048-054>057-064-065-180100-
CENTRAL INDIANA

CITY           SKY/WX    TMP DP  RH WIND       PRES   REMARKS
COLUMBUS       CLOUDY    43  32  65 S7        30.09S
INDIANAPOLIS   CLOUDY    42  37  82 S3        30.07S
6HR MIN TEMP:  41; 6HR MAX TEMP:  43; 6HR PCP:  0.02;

-EAGLE CREEK   CLOUDY    42  37  82 CALM      30.06S
6HR MIN TEMP:  42; 6HR MAX TEMP:  43; 6HR PCP:  0.02;

KOKOMO +       CLOUDY    39  37  92 S7        30.06R WCI  34
6HR MIN TEMP:  39; 6HR MAX TEMP:  41; 6HR PCP:  0.02;

MT COMFORT *+  CLOUDY    39  37  93 CALM      30.07S
SHELBYVILLE    CLOUDY    43  33  68 S10       30.06F
6HR MIN TEMP:  40; 6HR MAX TEMP:  43; 6HR PCP:  0.05;


$$

INZ033-034-041-042-049-050-058-059-180100-
EAST CENTRAL INDIANA

CITY           SKY/WX    TMP DP  RH WIND       PRES   REMARKS
MUNCIE         CLOUDY    41  35  79 SW5       30.07R
6HR MIN TEMP:  41; 6HR MAX TEMP:  44; 6HR PCP:  0.01;


$$

INZ060-061-067>069-081>083-085>088-180100-
SOUTHWEST INDIANA

CITY           SKY/WX    TMP DP  RH WIND       PRES   REMARKS
EVANSVILLE     CLOUDY    43  41  93 S5        30.12R
6HR MIN TEMP:  43; 6HR MAX TEMP:  45; 6HR PCP: TRACE;

HUNTINGBURG +  CLOUDY    43  39  86 S3        30.12R
6HR MIN TEMP:  43; 6HR MAX TEMP:  45; 6HR PCP: TRACE;


$$

INZ062-063-066-070>080-084-089>092-180100-
SOUTH CENTRAL AND SOUTHEAST INDIANA

CITY           SKY/WX    TMP DP  RH WIND       PRES   REMARKS
BLOOMINGTON    CLOUDY    44  35  70 S6        30.07S
6HR MIN TEMP:  43; 6HR MAX TEMP:  47; 6HR PCP: TRACE;

SEYMOUR +      CLOUDY    45  34  65 S5        30.10R

$$





USA.gov is the U.S. government's official web portal to all federal, state and local government web resources and services.